• Em Portugal
  • Lista de países
  • Para 7 dias
  • Temperatura da água
  • Mapas de satélite
  • Mapa do tempo
  • Widgets de tempo
  • user-avatar
    Iniciar Sessão

    Previsão horária em Santa Fé

    Hoje, 16 Dezembro, Sábado

    Tempo Temperatura Precipitação Vento Pressão Humidade
    00:00 +29°C° 0 mm 3 m/s 752 mmHg 33%
    01:00 +28°C° 0 mm 3 m/s 752 mmHg 36%
    02:00 +29°C° 0 mm 4 m/s 751 mmHg 34%
    03:00 +27°C° 0,3 mm 3 m/s 751 mmHg 42%
    04:00 +26°C° 0,3 mm 3 m/s 751 mmHg 50%
    05:00 +25°C° 0,3 mm 3 m/s 751 mmHg 58%
    06:00 +26°C° 0,3 mm 3 m/s 752 mmHg 56%
    07:00 +28°C° 0,3 mm 4 m/s 752 mmHg 54%
    08:00 +30°C° 0,3 mm 5 m/s 752 mmHg 52%
    09:00 +33°C° 0,3 mm 5 m/s 751 mmHg 49%
    10:00 +34°C° 0,3 mm 6 m/s 751 mmHg 46%
    11:00 +36°C° 0,3 mm 6 m/s 750 mmHg 44%
    12:00 +40°C° 0 mm 6 m/s 749 mmHg 37%
    13:00 +44°C° 0 mm 6 m/s 749 mmHg 30%
    14:00 +46°C° 0 mm 6 m/s 748 mmHg 22%
    15:00 +46°C° 0 mm 6 m/s 747 mmHg 22%
    16:00 +46°C° 0 mm 6 m/s 746 mmHg 22%
    17:00 +46°C° 0 mm 6 m/s 745 mmHg 22%
    18:00 +43°C° 0 mm 5 m/s 745 mmHg 26%
    19:00 +40°C° 0 mm 4 m/s 745 mmHg 29%
    20:00 +37°C° 0 mm 3 m/s 745 mmHg 32%
    21:00 +37°C° 0 mm 4 m/s 745 mmHg 32%
    22:00 +37°C° 0 mm 4 m/s 745 mmHg 33%
    23:00 +36°C° 0 mm 4 m/s 745 mmHg 33%

    Amanhã, 17 Dezembro, Domingo

    Tempo Temperatura Precipitação Vento Pressão Humidade
    00:00 +34°C° 1 mm 5 m/s 747 mmHg 46%
    01:00 +30°C° 1 mm 7 m/s 748 mmHg 59%
    02:00 +27°C° 1 mm 8 m/s 749 mmHg 72%
    03:00 +26°C° 2,9 mm 8 m/s 751 mmHg 78%
    04:00 +23°C° 2,9 mm 7 m/s 753 mmHg 84%
    05:00 +22°C° 2,9 mm 7 m/s 755 mmHg 90%
    06:00 +22°C° 0,9 mm 7 m/s 756 mmHg 84%
    07:00 +21°C° 0,9 mm 6 m/s 757 mmHg 77%
    08:00 +20°C° 0,9 mm 6 m/s 759 mmHg 71%
    09:00 +23°C° 0 mm 6 m/s 759 mmHg 57%
    10:00 +26°C° 0 mm 6 m/s 760 mmHg 43%
    11:00 +29°C° 0 mm 6 m/s 760 mmHg 29%
    12:00 +30°C° 0 mm 6 m/s 760 mmHg 28%
    13:00 +32°C° 0 mm 6 m/s 760 mmHg 26%
    14:00 +32°C° 0 mm 6 m/s 760 mmHg 25%
    15:00 +32°C° 0 mm 6 m/s 760 mmHg 26%
    16:00 +32°C° 0 mm 6 m/s 760 mmHg 26%
    17:00 +32°C° 0 mm 6 m/s 759 mmHg 27%
    18:00 +29°C° 0 mm 5 m/s 760 mmHg 32%
    19:00 +27°C° 0 mm 5 m/s 760 mmHg 38%
    20:00 +25°C° 0 mm 5 m/s 761 mmHg 43%
    21:00 +22°C° 0 mm 5 m/s 761 mmHg 48%
    22:00 +21°C° 0 mm 5 m/s 762 mmHg 53%
    23:00 +20°C° 0 mm 5 m/s 763 mmHg 58%

    Depois de amanhã, 18 Dezembro, Segunda-feira

    Tempo Temperatura Precipitação Vento Pressão Humidade
    00:00 +19°C° 0 mm 5 m/s 763 mmHg 57%
    01:00 +18°C° 0 mm 4 m/s 763 mmHg 56%
    02:00 +17°C° 0 mm 4 m/s 763 mmHg 56%
    03:00 +15°C° 0 mm 4 m/s 763 mmHg 55%
    04:00 +15°C° 0 mm 4 m/s 763 mmHg 54%
    05:00 +14°C° 0 mm 4 m/s 763 mmHg 54%
    06:00 +17°C° 0 mm 4 m/s 763 mmHg 50%
    07:00 +18°C° 0 mm 4 m/s 763 mmHg 46%
    08:00 +20°C° 0 mm 5 m/s 763 mmHg 42%
    09:00 +22°C° 0 mm 4 m/s 763 mmHg 38%
    10:00 +25°C° 0 mm 4 m/s 762 mmHg 33%
    11:00 +28°C° 0 mm 4 m/s 762 mmHg 28%
    12:00 +29°C° 0 mm 4 m/s 761 mmHg 26%
    13:00 +31°C° 0 mm 3 m/s 760 mmHg 24%
    14:00 +33°C° 0 mm 3 m/s 759 mmHg 21%
    15:00 +33°C° 0 mm 4 m/s 759 mmHg 22%
    16:00 +33°C° 0 mm 4 m/s 758 mmHg 23%
    17:00 +34°C° 0 mm 4 m/s 757 mmHg 24%
    18:00 +32°C° 0 mm 4 m/s 757 mmHg 29%
    19:00 +29°C° 0 mm 4 m/s 758 mmHg 33%
    20:00 +27°C° 0 mm 4 m/s 758 mmHg 38%
    21:00 +26°C° 0 mm 4 m/s 758 mmHg 41%
    22:00 +25°C° 0 mm 4 m/s 758 mmHg 44%
    23:00 +25°C° 0 mm 4 m/s 759 mmHg 46%

    19 Dezembro, Terça-feira

    Tempo Temperatura Precipitação Vento Pressão Humidade
    00:00 +23°C° 0 mm 4 m/s 758 mmHg 51%
    01:00 +23°C° 0 mm 4 m/s 758 mmHg 56%
    02:00 +23°C° 0 mm 4 m/s 758 mmHg 61%
    03:00 +22°C° 0,6 mm 4 m/s 758 mmHg 69%
    04:00 +21°C° 0,6 mm 4 m/s 758 mmHg 76%
    05:00 +21°C° 0,6 mm 4 m/s 758 mmHg 84%
    06:00 +21°C° 1,6 mm 4 m/s 759 mmHg 84%
    07:00 +21°C° 1,6 mm 4 m/s 759 mmHg 84%
    08:00 +22°C° 1,6 mm 4 m/s 760 mmHg 84%
    09:00 +22°C° 1,6 mm 4 m/s 760 mmHg 84%
    10:00 +22°C° 1,6 mm 4 m/s 760 mmHg 84%
    11:00 +23°C° 1,6 mm 4 m/s 760 mmHg 85%
    12:00 +23°C° 1,2 mm 4 m/s 759 mmHg 85%
    13:00 +23°C° 1,2 mm 4 m/s 759 mmHg 86%
    14:00 +23°C° 1,2 mm 5 m/s 758 mmHg 87%
    15:00 +23°C° 0,6 mm 5 m/s 758 mmHg 88%
    16:00 +22°C° 0,6 mm 5 m/s 758 mmHg 89%
    17:00 +22°C° 0,6 mm 5 m/s 757 mmHg 89%
    18:00 +21°C° 0,2 mm 5 m/s 757 mmHg 89%
    19:00 +21°C° 0,2 mm 5 m/s 757 mmHg 89%
    20:00 +20°C° 0,2 mm 5 m/s 758 mmHg 89%
    21:00 +20°C° 0 mm 4 m/s 758 mmHg 90%
    22:00 +20°C° 0 mm 3 m/s 758 mmHg 90%
    23:00 +20°C° 0 mm 3 m/s 758 mmHg 91%

    20 Dezembro, Quarta-feira

    Tempo Temperatura Precipitação Vento Pressão Humidade
    00:00 +20°C° 0,4 mm 3 m/s 758 mmHg 92%
    01:00 +19°C° 0,4 mm 3 m/s 757 mmHg 94%
    02:00 +19°C° 0,4 mm 3 m/s 757 mmHg 95%
    03:00 +19°C° 0,4 mm 3 m/s 757 mmHg 95%
    04:00 +19°C° 0,4 mm 3 m/s 757 mmHg 95%
    05:00 +19°C° 0,4 mm 3 m/s 757 mmHg 96%
    06:00 +21°C° 0,1 mm 3 m/s 757 mmHg 92%
    07:00 +22°C° 0,1 mm 3 m/s 757 mmHg 88%
    08:00 +25°C° 0,1 mm 3 m/s 757 mmHg 84%
    09:00 +27°C° 0 mm 3 m/s 756 mmHg 76%
    10:00 +29°C° 0 mm 3 m/s 756 mmHg 68%
    11:00 +31°C° 0 mm 2 m/s 755 mmHg 60%
    12:00 +33°C° 0 mm 3 m/s 754 mmHg 57%
    13:00 +34°C° 0 mm 3 m/s 754 mmHg 54%
    14:00 +35°C° 0 mm 3 m/s 753 mmHg 51%
    15:00 +35°C° 0,1 mm 3 m/s 752 mmHg 52%
    16:00 +34°C° 0,1 mm 3 m/s 752 mmHg 54%
    17:00 +34°C° 0,1 mm 3 m/s 752 mmHg 55%
    18:00 +31°C° 0 mm 3 m/s 752 mmHg 60%
    19:00 +30°C° 0 mm 3 m/s 752 mmHg 65%
    20:00 +28°C° 0 mm 3 m/s 752 mmHg 70%
    21:00 +28°C° 0 mm 3 m/s 752 mmHg 72%
    22:00 +27°C° 0 mm 3 m/s 752 mmHg 74%
    23:00 +26°C° 0 mm 3 m/s 752 mmHg 75%

    21 Dezembro, Quinta-feira

    Tempo Temperatura Precipitação Vento Pressão Humidade
    00:00 +26°C° 0 mm 3 m/s 752 mmHg 77%
    01:00 +25°C° 0 mm 3 m/s 751 mmHg 79%
    02:00 +25°C° 0 mm 3 m/s 751 mmHg 81%
    03:00 +25°C° 0 mm 3 m/s 751 mmHg 83%
    04:00 +25°C° 0 mm 3 m/s 751 mmHg 85%
    05:00 +24°C° 0 mm 3 m/s 751 mmHg 87%
    06:00 +26°C° 0 mm 3 m/s 752 mmHg 80%
    07:00 +28°C° 0 mm 3 m/s 752 mmHg 73%
    08:00 +30°C° 0 mm 4 m/s 753 mmHg 66%
    09:00 +33°C° 0 mm 3 m/s 753 mmHg 60%
    10:00 +35°C° 0 mm 3 m/s 752 mmHg 53%
    11:00 +36°C° 0 mm 3 m/s 752 mmHg 46%
    12:00 +37°C° 0 mm 2 m/s 752 mmHg 45%
    13:00 +37°C° 0 mm 2 m/s 751 mmHg 43%
    14:00 +38°C° 0 mm 2 m/s 751 mmHg 42%
    15:00 +38°C° 0 mm 2 m/s 750 mmHg 42%
    16:00 +36°C° 0 mm 1 m/s 750 mmHg 42%
    17:00 +36°C° 0 mm 1 m/s 750 mmHg 42%
    18:00 +35°C° 0 mm 1 m/s 750 mmHg 45%
    19:00 +34°C° 0 mm 2 m/s 751 mmHg 49%
    20:00 +32°C° 0 mm 2 m/s 751 mmHg 52%
    21:00 +31°C° 0 mm 2 m/s 751 mmHg 52%
    22:00 +31°C° 0 mm 3 m/s 751 mmHg 53%
    23:00 +30°C° 0 mm 3 m/s 751 mmHg 54%
    Mostrar mais